Back to catalog

COSMOS 970 DEB

AliveLEO
NORAD 12861·DEBRIS·🇷🇺 Russia

Launched Dec 21, 1977 from Baikonur Cosmodrome

Loading…

Next Passes (next 24 hours)

TLE

FreshSource: Space-Track

Epoch: Sep 14, 2026, 16:32 UTC

1 12861U 77121AP  26257.68927140  .00000100  00000-0  30627-3 0  9997
2 12861  65.7739  39.9991 0105380 318.9943  54.3756 13.40576924282936

Track COSMOS 970 DEB in real time with AllMySat

Download on the App Store